This is the latest recevied weather packets stored in our database for station/object PP5FMM-10. If no packets are shown the sender has not sent any weather packets the latest 10 day(s).
| Time | Temp. | Humidity | Pressure | Rain* | Wind** | Luminosity | Snow |
|---|---|---|---|---|---|---|---|
| 1788214594 | 21.67° C | 88% | 1009.9 hPa | - | - | - | - |
| 1788211893 | 21.11° C | 86% | 1009 hPa | - | - | - | - |
| 1788207392 | 21.11° C | 85% | 1010.4 hPa | - | - | - | - |
| 1788206492 | 21.11° C | 84% | 1009.7 hPa | - | - | - | - |
| 1788205592 | 21.11° C | 84% | 1008.6 hPa | - | - | - | - |
| 1788204692 | 21.11° C | 84% | 1007.6 hPa | - | - | - | - |
| 1788203792 | 21.11° C | 84% | 1008.3 hPa | - | - | - | - |
| 1788201091 | 21.11° C | 83% | 1010.1 hPa | - | - | - | - |
| 1788200191 | 21.11° C | 82% | 1010.3 hPa | - | - | - | - |
| 1788199291 | 21.11° C | 82% | 1011 hPa | - | - | - | - |
| 1788198391 | 21.11° C | 81% | 1011.3 hPa | - | - | - | - |
| 1788197490 | 20.56° C | 79% | 1011.5 hPa | - | - | - | - |
| 1788196590 | 20° C | 79% | 1011.8 hPa | - | - | - | - |
| 1788195690 | 20° C | 75% | 1012 hPa | - | - | - | - |
| 1788193890 | 20.56° C | 79% | 1012 hPa | - | - | - | - |
| 1788192989 | 21.11° C | 80% | 1011.1 hPa | - | - | - | - |
| 1788190289 | 20.56° C | 81% | 1012.1 hPa | - | - | - | - |
| 1788188489 | 21.11° C | 89% | 1012.6 hPa | - | - | - | - |
| 1788187589 | 21.11° C | 89% | 1012.7 hPa | - | - | - | - |
| 1788186688 | 21.11° C | 89% | 1013.4 hPa | - | - | - | - |
| 1788185788 | 21.11° C | 90% | 1014 hPa | - | - | - | - |
| 1788184888 | 21.11° C | 90% | 1014.6 hPa | - | - | - | - |
| 1788183988 | 21.11° C | 90% | 1015 hPa | - | - | - | - |
| 1788183088 | 20.56° C | 91% | 1015.4 hPa | - | - | - | - |
| 1788182187 | 21.11° C | 91% | 1014.7 hPa | - | - | - | - |
* Rain since midnight (hover to see other rain measurements)
** Current wind speed in m/s (hover to see current wind gust speed)